| time (UTC) | temp C | wind direction | speed KPH | gust KPH | rain 1hr cm | rain 24hr cm | rain mn cm | humidity % | barometer mb |
| 20260504231009 | 22 | 177 | 0.0 | 3.2 | 0.00 | 0.00 | 0.00 | 40 | 1012.0 |
| 20260504230504 | 23 | 127 | 0.0 | 4.8 | 0.00 | 0.00 | 0.00 | 39 | 1011.9 |
| 20260504230020 | 23 | 121 | 0.0 | 8.0 | 0.00 | 0.00 | 0.00 | 39 | 1011.9 |
| 20260504225513 | 23 | 227 | 0.0 | 8.0 | 0.00 | 0.00 | 0.00 | 39 | 1011.9 |
| 20260504225007 | 23 | 138 | 0.0 | 9.7 | 0.00 | 0.00 | 0.00 | 37 | 1012.0 |
| 20260504224521 | 23 | 180 | 1.6 | 9.7 | 0.00 | 0.00 | 0.00 | 37 | 1012.0 |
| 20260504224007 | 23 | 190 | 1.6 | 8.0 | 0.00 | 0.00 | 0.00 | 38 | 1012.1 |
| 20260504223508 | 23 | 211 | 1.6 | 8.0 | 0.00 | 0.00 | 0.00 | 36 | 1012.2 |
| 20260504223020 | 23 | 79 | 0.0 | 8.0 | 0.00 | 0.00 | 0.00 | 37 | 1012.1 |
| 20260504222511 | 23 | 119 | 1.6 | 8.0 | 0.00 | 0.00 | 0.00 | 37 | 1012.1 |
| 20260504222011 | 23 | 325 | 0.0 | 8.0 | 0.00 | 0.00 | 0.00 | 37 | 1012.1 |
| 20260504221522 | 23 | 209 | 0.0 | 6.4 | 0.00 | 0.00 | 0.00 | 36 | 1012.1 |
| 20260504221010 | 23 | 140 | 1.6 | 11.3 | 0.00 | 0.00 | 0.00 | 36 | 1012.0 |
| 20260504220508 | 23 | 179 | 0.0 | 11.3 | 0.00 | 0.00 | 0.00 | 37 | 1012.0 |
| 20260504220022 | 23 | 223 | 4.8 | 11.3 | 0.00 | 0.00 | 0.00 | 37 | 1012.1 |
| 20260504215507 | 23 | 156 | 1.6 | 9.7 | 0.00 | 0.00 | 0.00 | 37 | 1012.1 |
| 20260504215009 | 24 | 20 | 0.0 | 11.3 | 0.00 | 0.00 | 0.00 | 37 | 1012.1 |
| 20260504214523 | 24 | 147 | 1.6 | 11.3 | 0.00 | 0.00 | 0.00 | 37 | 1012.1 |
| 20260504214010 | 24 | 119 | 0.0 | 9.7 | 0.00 | 0.00 | 0.00 | 37 | 1012.0 |
| 20260504213507 | 24 | 185 | 0.0 | 11.3 | 0.00 | 0.00 | 0.00 | 37 | 1012.0 |
| 20260504213044 | 24 | 201 | 1.6 | 11.3 | 0.00 | 0.00 | 0.00 | 35 | 1011.9 |
| 20260504212511 | 24 | 140 | 1.6 | 9.7 | 0.00 | 0.00 | 0.00 | 35 | 1011.9 |
| 20260504212007 | 25 | 17 | 1.6 | 8.0 | 0.00 | 0.00 | 0.00 | 36 | 1011.9 |
| 20260504211525 | 25 | 130 | 0.0 | 6.4 | 0.00 | 0.00 | 0.00 | 36 | 1011.9 |
| 20260504211007 | 25 | 65 | 0.0 | 6.4 | 0.00 | 0.00 | 0.00 | 35 | 1011.9 |
| 20260504210508 | 25 | 26 | 1.6 | 4.8 | 0.00 | 0.00 | 0.00 | 36 | 1011.9 |
| 20260504210027 | 25 | 100 | 0.0 | 6.4 | 0.00 | 0.00 | 0.00 | 35 | 1012.0 |
| 20260504205504 | 25 | 184 | 0.0 | 11.3 | 0.00 | 0.00 | 0.00 | 37 | 1011.9 |
| 20260504205003 | 25 | 98 | 0.0 | 11.3 | 0.00 | 0.00 | 0.00 | 36 | 1011.9 |
| 20260504204504 | 25 | 204 | 4.8 | 11.3 | 0.00 | 0.00 | 0.00 | 34 | 1011.9 |
| 20260504204004 | 25 | 56 | 0.0 | 6.4 | 0.00 | 0.00 | 0.00 | 35 | 1011.9 |
| 20260504203506 | 25 | 207 | 1.6 | 8.0 | 0.00 | 0.00 | 0.00 | 34 | 1012.0 |
| 20260504203008 | 25 | 162 | 0.0 | 8.0 | 0.00 | 0.00 | 0.00 | 34 | 1012.1 |
| 20260504202504 | 25 | 171 | 0.0 | 11.3 | 0.00 | 0.00 | 0.00 | 35 | 1012.1 |
| 20260504202008 | 25 | 96 | 3.2 | 11.3 | 0.00 | 0.00 | 0.00 | 36 | 1012.0 |
| 20260504201505 | 25 | 324 | 1.6 | 11.3 | 0.00 | 0.00 | 0.00 | 35 | 1012.2 |
| 20260504201005 | 25 | 352 | 1.6 | 14.5 | 0.00 | 0.00 | 0.00 | 35 | 1012.3 |
| 20260504200502 | 25 | 145 | 4.8 | 16.1 | 0.00 | 0.00 | 0.00 | 35 | 1012.2 |
| 20260504200006 | 25 | 105 | 0.0 | 16.1 | 0.00 | 0.00 | 0.00 | 37 | 1012.3 |
| 20260504195508 | 25 | 215 | 3.2 | 14.5 | 0.00 | 0.00 | 0.00 | 36 | 1012.3 |
| 20260504195003 | 25 | 160 | 1.6 | 6.4 | 0.00 | 0.00 | 0.00 | 35 | 1012.3 |
| 20260504194507 | 25 | 129 | 1.6 | 8.0 | 0.00 | 0.00 | 0.00 | 34 | 1012.4 |
| 20260504194003 | 25 | 124 | 1.6 | 8.0 | 0.00 | 0.00 | 0.00 | 35 | 1012.4 |
| 20260504193503 | 24 | 28 | 1.6 | 9.7 | 0.00 | 0.00 | 0.00 | 37 | 1012.5 |
| 20260504193007 | 24 | 24 | 1.6 | 9.7 | 0.00 | 0.00 | 0.00 | 36 | 1012.5 |
| 20260504192506 | 24 | 11 | 0.0 | 4.8 | 0.00 | 0.00 | 0.00 | 39 | 1012.7 |
| 20260504192003 | 24 | 144 | 0.0 | 6.4 | 0.00 | 0.00 | 0.00 | 36 | 1012.8 |
| 20260504191508 | 24 | 339 | 0.0 | 6.4 | 0.00 | 0.00 | 0.00 | 39 | 1012.8 |
| 20260504191012 | 24 | 63 | 1.6 | 14.5 | 0.00 | 0.00 | 0.00 | 37 | 1013.0 |
| 20260504190504 | 24 | 265 | 1.6 | 14.5 | 0.00 | 0.00 | 0.00 | 37 | 1013.0 |
| 20260504190007 | 25 | 126 | 3.2 | 8.0 | 0.00 | 0.00 | 0.00 | 35 | 1013.0 |
| 20260504185510 | 24 | 49 | 0.0 | 9.7 | 0.00 | 0.00 | 0.00 | 37 | 1013.0 |
| 20260504185002 | 23 | 215 | 3.2 | 9.7 | 0.00 | 0.00 | 0.00 | 38 | 1013.2 |
| 20260504184514 | 23 | 349 | 1.6 | 6.4 | 0.00 | 0.00 | 0.00 | 41 | 1013.3 |
| 20260504184010 | 23 | 169 | 1.6 | 6.4 | 0.00 | 0.00 | 0.00 | 39 | 1013.3 |
| 20260504183505 | 22 | 19 | 0.0 | 6.4 | 0.00 | 0.00 | 0.00 | 41 | 1013.4 |
| 20260504183019 | 22 | 24 | 1.6 | 9.7 | 0.00 | 0.00 | 0.00 | 39 | 1013.3 |
| 20260504182509 | 23 | 145 | 0.0 | 9.7 | 0.00 | 0.00 | 0.00 | 41 | 1013.4 |
| 20260504182004 | 23 | 78 | 0.0 | 6.4 | 0.00 | 0.00 | 0.00 | 37 | 1013.4 |
| 20260504181513 | 23 | 126 | 0.0 | 4.8 | 0.00 | 0.00 | 0.00 | 37 | 1013.6 |
| 20260504181008 | 23 | 342 | 0.0 | 4.8 | 0.00 | 0.00 | 0.00 | 39 | 1013.7 |
| 20260504180510 | 22 | 166 | 0.0 | 4.8 | 0.00 | 0.00 | 0.00 | 36 | 1013.8 |
| 20260504180013 | 22 | 44 | 0.0 | 14.5 | 0.00 | 0.00 | 0.00 | 38 | 1013.9 |
| 20260504175507 | 22 | 136 | 0.0 | 14.5 | 0.00 | 0.00 | 0.00 | 37 | 1014.0 |
| 20260504175006 | 22 | 96 | 1.6 | 6.4 | 0.00 | 0.00 | 0.00 | 38 | 1014.1 |
| 20260504174514 | 22 | 174 | 0.0 | 6.4 | 0.00 | 0.00 | 0.00 | 38 | 1014.0 |
| 20260504174012 | 22 | 327 | 1.6 | 6.4 | 0.00 | 0.00 | 0.00 | 38 | 1014.1 |
| 20260504173505 | 22 | 223 | 0.0 | 4.8 | 0.00 | 0.00 | 0.00 | 40 | 1014.1 |
| 20260504173023 | 22 | 248 | 0.0 | 6.4 | 0.00 | 0.00 | 0.00 | 39 | 1014.1 |
| 20260504172509 | 22 | 119 | 0.0 | 8.0 | 0.00 | 0.00 | 0.00 | 39 | 1014.2 |
| 20260504172002 | 22 | 69 | 0.0 | 8.0 | 0.00 | 0.00 | 0.00 | 36 | 1014.2 |
| 20260504171522 | 22 | 130 | 1.6 | 6.4 | 0.00 | 0.00 | 0.00 | 38 | 1014.3 |
| 20260504171012 | 22 | 185 | 1.6 | 12.9 | 0.00 | 0.00 | 0.00 | 39 | 1014.4 |
| 20260504170504 | 22 | 5 | 0.0 | 12.9 | 0.00 | 0.00 | 0.00 | 38 | 1014.4 |
| 20260504151006 | 20 | 238 | 1.6 | 6.4 | 0.00 | 0.00 | 0.00 | 45 | 1015.5 |
| 20260504150507 | 20 | 221 | 0.0 | 9.7 | 0.00 | 0.00 | 0.00 | 41 | 1015.5 |
| 20260504141004 | 17 | 92 | 1.6 | 8.0 | 0.00 | 0.00 | 0.00 | 50 | 1015.7 |
| 20260504140507 | 16 | 38 | 0.0 | 4.8 | 0.00 | 0.00 | 0.00 | 52 | 1015.8 |
| 20260504130507 | 13 | 82 | 0.0 | 4.8 | 0.00 | 0.00 | 0.00 | 59 | 1016.1 |
| 20260504110509 | 9 | 46 | 0.0 | 3.2 | 0.00 | 0.00 | 0.00 | 68 | 1016.5 |
| 20260504100509 | 10 | 355 | 0.0 | 0.0 | 0.00 | 0.00 | 0.00 | 64 | 1016.3 |
| 20260504081524 | 11 | 134 | 3.2 | 14.5 | 0.00 | 0.00 | 0.00 | 53 | 1016.3 |
| 20260504081004 | 11 | 169 | 4.8 | 12.9 | 0.00 | 0.00 | 0.00 | 53 | 1016.3 |
| 20260504080506 | 11 | 195 | 4.8 | 14.5 | 0.00 | 0.00 | 0.00 | 52 | 1016.3 |
| 20260504050509 | 11 | 164 | 1.6 | 6.4 | 0.00 | 0.00 | 0.00 | 53 | 1016.4 |
| 20260504045507 | 11 | 193 | 3.2 | 9.7 | 0.00 | 0.00 | 0.00 | 53 | 1016.3 |
| 20260504045011 | 11 | 193 | 3.2 | 9.7 | 0.00 | 0.00 | 0.00 | 53 | 1016.3 |
| 20260504044537 | 11 | 208 | 3.2 | 8.0 | 0.00 | 0.00 | 0.00 | 53 | 1016.3 |
| 20260504044007 | 11 | 98 | 1.6 | 8.0 | 0.00 | 0.00 | 0.00 | 53 | 1016.4 |
| 20260504043508 | 11 | 178 | 3.2 | 8.0 | 0.00 | 0.00 | 0.00 | 53 | 1016.4 |
| 20260504043033 | 11 | 171 | 3.2 | 8.0 | 0.00 | 0.00 | 0.00 | 53 | 1016.4 |
| 20260504042509 | 11 | 183 | 1.6 | 12.9 | 0.00 | 0.00 | 0.00 | 54 | 1016.4 |
| 20260504042009 | 11 | 162 | 3.2 | 12.9 | 0.00 | 0.00 | 0.00 | 54 | 1016.4 |
| 20260504041529 | 11 | 172 | 4.8 | 12.9 | 0.00 | 0.00 | 0.00 | 55 | 1016.4 |
| 20260504041006 | 11 | 128 | 1.6 | 4.8 | 0.00 | 0.00 | 0.00 | 56 | 1016.4 |
| 20260504040512 | 11 | 161 | 1.6 | 8.0 | 0.00 | 0.00 | 0.00 | 56 | 1016.3 |
| 20260504040013 | 11 | 134 | 1.6 | 8.0 | 0.00 | 0.00 | 0.00 | 57 | 1016.3 |
| 20260504035513 | 11 | 175 | 3.2 | 8.0 | 0.00 | 0.00 | 0.00 | 55 | 1016.3 |
| 20260504035009 | 10 | 163 | 0.0 | 4.8 | 0.00 | 0.00 | 0.00 | 57 | 1016.4 |
| 20260504034512 | 10 | 140 | 1.6 | 4.8 | 0.00 | 0.00 | 0.00 | 57 | 1016.3 |
| 20260504034006 | 10 | 196 | 1.6 | 9.7 | 0.00 | 0.00 | 0.00 | 56 | 1016.3 |
| 20260504033515 | 10 | 159 | 0.0 | 9.7 | 0.00 | 0.00 | 0.00 | 57 | 1016.4 |
| 20260504033016 | 10 | 180 | 0.0 | 3.2 | 0.00 | 0.00 | 0.00 | 57 | 1016.5 |
| 20260504032509 | 10 | 207 | 0.0 | 3.2 | 0.00 | 0.00 | 0.00 | 57 | 1016.4 |
| 20260504032013 | 10 | 145 | 0.0 | 4.8 | 0.00 | 0.00 | 0.00 | 56 | 1016.4 |
| 20260504031515 | 10 | 150 | 0.0 | 4.8 | 0.00 | 0.00 | 0.00 | 57 | 1016.4 |
| 20260504031008 | 10 | 150 | 0.0 | 4.8 | 0.00 | 0.00 | 0.00 | 59 | 1016.4 |
| 20260504030508 | 10 | 133 | 0.0 | 4.8 | 0.00 | 0.00 | 0.00 | 58 | 1016.4 |
| 20260504030016 | 10 | 174 | 1.6 | 4.8 | 0.00 | 0.00 | 0.00 | 59 | 1016.3 |
| 20260504025506 | 10 | 170 | 0.0 | 3.2 | 0.00 | 0.00 | 0.00 | 59 | 1016.3 |
| 20260504025003 | 10 | 184 | 0.0 | 3.2 | 0.00 | 0.00 | 0.00 | 58 | 1016.4 |
| 20260504024505 | 10 | 167 | 0.0 | 3.2 | 0.00 | 0.00 | 0.00 | 58 | 1016.4 |
| 20260504024007 | 10 | 170 | 0.0 | 4.8 | 0.00 | 0.00 | 0.00 | 58 | 1016.4 |
| 20260504023507 | 10 | 140 | 0.0 | 4.8 | 0.00 | 0.00 | 0.00 | 58 | 1016.4 |
| 20260504023004 | 10 | 164 | 0.0 | 3.2 | 0.00 | 0.00 | 0.00 | 59 | 1016.4 |
| 20260504022504 | 10 | 176 | 1.6 | 3.2 | 0.00 | 0.00 | 0.00 | 60 | 1016.4 |
| 20260504022003 | 10 | 113 | 0.0 | 3.2 | 0.00 | 0.00 | 0.00 | 60 | 1016.4 |
| 20260504021504 | 10 | 142 | 0.0 | 0.0 | 0.00 | 0.00 | 0.00 | 62 | 1016.3 |
| 20260504021002 | 10 | 142 | 0.0 | 0.0 | 0.00 | 0.00 | 0.00 | 63 | 1016.3 |
| 20260504020503 | 10 | 142 | 0.0 | 0.0 | 0.00 | 0.00 | 0.00 | 63 | 1016.3 |
| 20260504020008 | 10 | 142 | 0.0 | 0.0 | 0.00 | 0.00 | 0.00 | 62 | 1016.3 |
| 20260504015503 | 10 | 142 | 0.0 | 0.0 | 0.00 | 0.00 | 0.00 | 63 | 1016.2 |
| 20260504015002 | 10 | 142 | 0.0 | 0.0 | 0.00 | 0.00 | 0.00 | 63 | 1016.1 |
| 20260504014507 | 9 | 142 | 0.0 | 0.0 | 0.00 | 0.00 | 0.00 | 64 | 1016.1 |
| 20260504014003 | 10 | 142 | 0.0 | 0.0 | 0.00 | 0.00 | 0.00 | 63 | 1016.2 |
| 20260504013503 | 10 | 142 | 0.0 | 0.0 | 0.00 | 0.00 | 0.00 | 63 | 1016.2 |
| 20260504013009 | 10 | 142 | 0.0 | 0.0 | 0.00 | 0.00 | 0.00 | 62 | 1016.2 |
| 20260504012504 | 10 | 142 | 0.0 | 0.0 | 0.00 | 0.00 | 0.00 | 61 | 1016.2 |
| 20260504012004 | 10 | 142 | 0.0 | 0.0 | 0.00 | 0.00 | 0.00 | 62 | 1016.1 |
| 20260504011509 | 10 | 142 | 0.0 | 0.0 | 0.00 | 0.00 | 0.00 | 61 | 1016.1 |
| 20260504011007 | 10 | 142 | 0.0 | 0.0 | 0.00 | 0.00 | 0.00 | 60 | 1016.1 |
| 20260504010503 | 10 | 142 | 0.0 | 0.0 | 0.00 | 0.00 | 0.00 | 60 | 1016.1 |
| 20260504010009 | 10 | 142 | 0.0 | 0.0 | 0.00 | 0.00 | 0.00 | 60 | 1016.1 |
| 20260504005503 | 11 | 142 | 0.0 | 0.0 | 0.00 | 0.00 | 0.00 | 59 | 1016.0 |
| 20260504005005 | 11 | 142 | 0.0 | 0.0 | 0.00 | 0.00 | 0.00 | 59 | 1016.1 |
| 20260504004511 | 11 | 142 | 0.0 | 0.0 | 0.00 | 0.00 | 0.00 | 58 | 1016.1 |
| 20260504004004 | 11 | 142 | 0.0 | 0.0 | 0.00 | 0.00 | 0.00 | 58 | 1016.1 |
| 20260504003506 | 11 | 142 | 0.0 | 1.6 | 0.00 | 0.00 | 0.00 | 58 | 1016.0 |
| 20260504003007 | 11 | 142 | 0.0 | 1.6 | 0.00 | 0.00 | 0.00 | 57 | 1015.9 |
| 20260504002503 | 11 | 142 | 0.0 | 1.6 | 0.00 | 0.00 | 0.00 | 57 | 1015.9 |
| 20260504002006 | 12 | 142 | 0.0 | 1.6 | 0.00 | 0.00 | 0.00 | 56 | 1015.8 |
| 20260504001511 | 12 | 142 | 0.0 | 1.6 | 0.00 | 0.00 | 0.00 | 55 | 1015.8 |
| 20260504001004 | 12 | 142 | 0.0 | 1.6 | 0.00 | 0.00 | 0.00 | 54 | 1015.8 |
| 20260504000505 | 12 | 142 | 0.0 | 1.6 | 0.00 | 0.00 | 0.00 | 53 | 1015.8 |
| 20260504000014 | 13 | 142 | 0.0 | 1.6 | 0.00 | 0.00 | 0.00 | 52 | 1015.7 |
| 20260503235503 | 13 | 142 | 0.0 | 1.6 | 0.00 | 0.00 | 0.00 | 51 | 1015.6 |
| 20260503235004 | 13 | 142 | 0.0 | 1.6 | 0.00 | 0.00 | 0.00 | 50 | 1015.6 |
| 20260503234512 | 14 | 142 | 0.0 | 1.6 | 0.00 | 0.00 | 0.00 | 47 | 1015.6 |
| 20260503234006 | 14 | 142 | 0.0 | 0.0 | 0.00 | 0.00 | 0.00 | 44 | 1015.5 |
| 20260503233505 | 15 | 142 | 0.0 | 0.0 | 0.00 | 0.00 | 0.00 | 42 | 1015.5 |
| 20260503233009 | 15 | 142 | 0.0 | 0.0 | 0.00 | 0.00 | 0.00 | 41 | 1015.5 |
| 20260503232506 | 15 | 142 | 0.0 | 1.6 | 0.00 | 0.00 | 0.00 | 41 | 1015.6 |
| 20260503232011 | 15 | 142 | 0.0 | 1.6 | 0.00 | 0.00 | 0.00 | 40 | 1015.6 |
| 20260503231514 | 15 | 139 | 0.0 | 4.8 | 0.00 | 0.00 | 0.00 | 40 | 1015.6 |